Location: Unspecified
(0.0000°N, 0.0000°E)
Time: 16:45:03
(UTC+00:00)

NOSS 3-3 (A) - Visible Passes

Search period start: 28 May 2023 00:00
Search period end: 07 June 2023 00:00
Orbit: 763 x 1448 km, 63.4° (Epoch: 22 May)

Date Brightness Start Highest point End Pass type
(mag) Time Alt. Az. Time Alt. Az. Time Alt. Az.
28 May 6.8 21:50:20 10° N 21:51:34 15° N 21:51:34 15° N visible
29 May 6.5 21:06:24 10° N 21:08:26 17° NNE 21:08:26 17° NNE visible
30 May 6.5 20:23:27 10° NNE 20:25:21 14° NE 20:25:21 14° NE visible
30 May 6.8 22:11:15 10° NNW 22:12:49 17° NNW 22:12:49 17° NNW visible
31 May 6.2 21:26:22 10° NNW 21:29:48 28° NNW 21:29:48 28° NNW visible
01 Jun 5.8 20:42:02 10° N 20:46:50 32° NNE 20:46:50 32° NNE visible
01 Jun 7.1 22:33:49 10° WNW 22:34:18 12° WNW 22:34:18 12° WNW visible
02 Jun 5.9 19:58:26 10° NNE 20:03:56 25° NE 20:03:56 25° NE visible
02 Jun 6.3 21:47:51 10° NW 21:51:25 26° NW 21:51:25 26° NW visible
03 Jun 6.3 19:16:15 10° NE 19:20:27 14° ENE 19:21:06 14° ENE visible
03 Jun 5.4 21:02:36 10° NNW 21:08:35 50° NNW 21:08:35 50° NNW visible
04 Jun 4.9 20:17:57 10° NNW 20:25:50 60° NE 20:25:50 60° NE visible
04 Jun 6.9 22:11:18 10° WNW 22:13:19 15° W 22:13:19 15° W visible
05 Jun 5.3 19:33:52 10° N 19:41:42 37° ENE 19:43:08 35° E visible
05 Jun 6.0 21:24:42 10° NW 21:30:37 33° W 21:30:37 33° W visible
06 Jun 6.0 18:50:40 10° NNE 18:56:47 21° ENE 19:00:30 16° E visible
06 Jun 5.0 20:39:03 10° NW 20:47:43 62° WSW 20:47:59 61° WSW visible
